Location: *
(48.2725°N, 7.4014°E)
Time: 08:37:43
(UTC+00:00)

Daily predictions for brighter satellites

Satellite Brightness Start Highest point End
(mag) Time Altitude Azimuth Time Altitude Azimuth Time Altitude Azimuth
CSL-04 Rocket 4.3 16:53:53 10° SE 16:58:47 34° ENE 17:03:38 10° N
Unknown 4.3 16:55:05 10° W 16:59:05 44° N 17:03:05 10° ENE
Meteor 1-11 4.4 16:54:23 10° N 17:00:04 54° ENE 17:05:44 10° SSE
Unknown 4.3 16:56:45 10° W 17:00:45 44° N 17:04:44 10° ENE
Cosmos 2058 Rocket 3.1 16:57:05 10° S 17:01:20 56° E 17:05:37 10° NNE
SJ 16-02 3.3 17:00:20 10° NNE 17:01:39 11° NE 17:02:57 10° ENE
Cosmos 2263 Rocket 4.5 16:58:48 10° W 17:02:43 19° NW 17:06:38 10° N
Cosmos 2084 Rocket 4.1 16:58:43 10° NNW 17:02:54 39° NE 17:07:02 10° ESE
Okean O Rocket 4.5 17:00:25 10° SSW 17:04:02 24° W 17:07:39 10° NW
Unknown 4.4 17:01:48 10° WNW 17:05:47 43° N 17:09:46 10° ENE
Cosmos 1953 3.2 17:02:34 10° SSW 17:06:33 55° WNW 17:10:34 10° N
Ariane Rocket 4.3 17:03:03 10° ESE 17:06:42 20° ENE 17:10:22 10° NNE
Unknown 4.4 17:03:26 10° WNW 17:07:25 43° N 17:11:24 10° ENE
YAOGAN 6 3.3 17:04:14 10° SE 17:07:29 32° ENE 17:10:44 10° N
Unknown 4.4 17:05:10 10° WNW 17:09:08 43° N 17:13:07 10° ENE
Unknown 4.4 17:06:45 10° WNW 17:10:45 43° N 17:14:46 10° ENE
Unknown 4.1 17:08:08 10° WNW 17:11:49 42° N 17:15:18 11° E
Unknown 4.4 17:08:28 10° WNW 17:12:26 43° N 17:16:20 10° ENE
COSMO-SKYMED 1 3.1 17:09:44 10° NNE 17:13:48 37° E 17:17:51 10° SSE
Unknown 4.4 17:10:15 10° WNW 17:14:14 42° N 17:18:02 11° ENE
Cosmos 1833 Rocket 2.7 17:11:24 10° NNW 17:17:02 71° ENE 17:22:38 10° SE
Unknown 4.4 17:13:36 10° WNW 17:17:34 42° N 17:21:14 12° ENE
Unknown 4.4 17:15:09 10° WNW 17:19:07 42° N 17:22:43 12° ENE
NOSS 3-2 (C) 4.4 17:17:14 10° SSE 17:21:46 24° ESE 17:26:42 10° ENE
Unknown 4.4 17:18:25 10° WNW 17:22:22 42° N 17:25:50 13° ENE
ASTEX 1 3.4 17:18:03 10° N 17:23:00 65° E 17:27:57 10° S
BREEZE-M DEB (TANK) 4.3 17:12:39 10° SW 17:24:52 40° SSE 17:28:14 14° E
Unknown 4.4 17:21:51 10° WNW 17:25:49 42° N 17:29:07 14° ENE
Cosmos 1777 Rocket 4.2 17:21:18 10° NNW 17:26:31 77° WSW 17:31:42 10° SSE
Unknown 4.4 17:23:31 10° WNW 17:27:29 42° N 17:30:43 14° ENE
Okean-O 3.2 17:23:20 10° S 17:27:44 63° WSW 17:32:10 10° NNW
CZ-4 R/B 4.4 17:24:40 10° SSE 17:28:44 64° ENE 17:32:50 10° N
Unknown 4.4 17:25:12 10° WNW 17:29:10 42° N 17:32:19 15° ENE
Unknown 4.4 17:26:53 10° WNW 17:30:52 42° N 17:33:56 16° ENE
Lacrosse 5 1.9 17:26:11 10° NW 17:31:16 87° SW 17:36:20 10° SE
Unknown 3.5 17:29:46 10° WNW 17:33:09 63° SSW 17:36:20 11° SE
Unknown 4.4 17:30:15 10° WNW 17:34:12 42° N 17:37:08 17° ENE
Cosmos 1076 Rocket 4.0 17:30:22 10° N 17:34:27 38° ENE 17:38:30 10° SE
Cosmos 1605 Rocket 3.9 17:28:41 10° N 17:34:54 81° E 17:41:00 10° S
Cosmos 1934 Rocket 4.4 17:29:29 10° NNW 17:35:48 69° W 17:42:08 10° S
Unknown 4.4 17:31:58 10° WNW 17:35:56 42° N 17:38:47 17° ENE
Cosmos 2058 3.8 17:33:03 10° N 17:36:47 29° ENE 17:40:28 10° SE
Unknown 4.0 17:33:22 10° WNW 17:37:09 46° NNE 17:39:36 20° ENE
Unknown 4.4 17:33:33 10° WNW 17:37:31 42° N 17:40:17 18° ENE
Cosmos 1300 3.5 17:34:24 10° SSE 17:37:44 29° E 17:41:04 10° NNE
Unknown 4.4 17:35:10 10° WNW 17:39:08 42° N 17:41:50 18° ENE
Cosmos 1242 Rocket 4.4 17:35:58 10° NNW 17:39:21 35° W 17:42:43 10° SSW
Unknown 4.4 17:36:54 10° WNW 17:40:52 42° N 17:43:30 19° ENE
Unknown 4.4 17:38:23 10° WNW 17:42:20 42° N 17:44:55 19° ENE
Unknown 4.4 17:41:42 10° WNW 17:45:40 42° N 17:48:05 21° ENE
FALCON 9 DEB 3.6 17:42:29 10° WNW 17:45:55 60° SSW 17:48:30 16° SE
ATLAS 3B R/B 3.5 17:41:20 10° SSE 17:46:46 27° ESE 17:50:13 18° ENE
CZ-2D R/B 3.6 17:43:38 10° SE 17:47:16 41° ENE 17:50:57 10° N
Unknown 4.3 17:43:22 10° WNW 17:47:20 42° N 17:49:41 21° ENE
CSL-04 Debris 4.1 17:42:53 10° SSE 17:48:20 79° ENE 17:53:51 10° NNW
Unknown 4.3 17:45:16 10° WNW 17:49:15 43° N 17:51:29 22° ENE
Cosmos 1727 Rocket 4.0 17:43:33 10° S 17:49:35 61° E 17:55:40 10° NNE
Cosmos 2082 Rocket 2.2 17:44:22 10° NNW 17:50:08 86° ENE 17:55:49 10° SSE
Unknown 4.3 17:46:45 10° WNW 17:50:43 42° N 17:52:55 23° ENE
Cosmos 2173 Rocket 4.2 17:45:41 10° N 17:51:40 45° ENE 17:57:32 10° SE
Cosmos 1812 Rocket 3.6 17:47:43 10° S 17:52:03 57° E 17:56:28 10° NNE
Unknown 4.3 17:48:23 10° WNW 17:52:21 43° N 17:54:29 23° ENE
Cosmos 1939 Rocket 3.2 17:48:57 10° SE 17:52:46 44° ENE 17:56:40 10° N
Cosmos 2151 4.1 17:49:38 10° NNE 17:53:08 23° ENE 17:53:14 23° ENE
CENTAUR R/B 3.2 17:48:27 10° S 17:53:30 30° ESE 17:56:59 19° ENE
Unknown 4.2 17:50:59 10° WNW 17:54:54 45° N 17:56:45 26° ENE
Unknown 4.3 17:51:45 10° WNW 17:55:44 43° N 17:57:42 25° ENE
Unknown 4.3 17:53:22 10° WNW 17:57:21 43° N 17:59:15 26° ENE
Unknown 4.3 17:55:04 10° WNW 17:59:03 43° N 18:00:52 27° ENE
BREEZE-M DEB (TANK) 2.6 17:55:01 10° SW 17:59:09 44° SSE 17:59:43 37° ESE
Falcon 9 debris 4.1 17:56:06 10° WNW 17:59:23 43° SW 18:01:35 18° SSE
Unknown 4.3 17:56:45 10° WNW 18:00:44 43° N 18:02:29 27° ENE
SKYMED 2 3.8 17:57:37 10° N 18:01:58 72° WNW 18:06:17 10° SSW
Envisat 4.0 17:57:42 10° S 18:02:36 49° W 18:07:33 10° NNW
YAOGAN 1 2.7 17:58:28 10° S 18:02:47 78° WSW 18:07:09 10° NNW
Cosmos 1802 Rocket 4.3 17:56:59 10° N 18:03:10 46° ENE 18:09:17 10° SSE
Unknown 3.8 17:59:48 10° WNW 18:03:15 52° SSW 18:05:02 25° SSE
Unknown 4.3 18:00:07 10° WNW 18:04:07 44° N 18:05:42 29° ENE
Unknown 4.2 18:00:37 10° WNW 18:04:34 45° N 18:06:04 30° ENE
Unknown 4.2 18:01:06 10° WNW 18:05:05 44° N 18:06:38 30° ENE
Unknown 4.2 18:01:53 10° WNW 18:05:53 45° N 18:07:23 31° ENE
Cosmos 44 3.6 18:01:52 10° S 18:06:32 44° ESE 18:08:22 30° ENE
Unknown 4.2 18:03:40 10° WNW 18:07:40 45° N 18:09:06 32° ENE
Unknown 4.2 18:06:48 10° WNW 18:10:48 45° N 18:12:06 33° NE
Cosmos 1898 Rocket 3.5 18:06:09 10° NNW 18:11:23 59° ENE 18:14:40 23° SE
Unknown 3.2 18:08:15 10° WNW 18:12:00 83° NNE 18:12:58 48° ESE
H-2A R/B 3.1 18:11:50 26° ENE 18:12:05 27° ENE 18:16:33 10° N
In-Cosmos 22 Rocket 4.1 18:07:35 10° N 18:12:58 60° ENE 18:18:26 10° SSE
Unknown 4.2 18:10:08 10° WNW 18:14:08 45° N 18:15:17 35° NE
BREEZE M DEB (TANK) 3.6 18:11:41 10° W 18:14:09 34° SSW 18:17:54 16° SE
Cosmos 1725 Rocket 4.4 18:09:16 10° N 18:15:07 38° ENE 18:17:33 28° ESE
Unknown 4.2 18:11:46 10° WNW 18:15:46 46° N 18:16:51 36° NE
ATLAS 5 CENTAUR R/B 4.0 18:13:13 10° WNW 18:16:28 18° NNW 18:20:02 10° NNE
Unknown 4.2 18:13:27 10° WNW 18:17:28 46° N 18:18:28 38° NE
Meteor 2-1 Rocket 4.2 18:12:20 10° S 18:17:42 56° E 18:23:10 10° NNE
Unknown 4.2 18:15:05 10° WNW 18:19:06 46° N 18:20:02 39° NE
Cosmos 2100 Rocket 3.8 18:14:40 10° N 18:20:53 76° E 18:27:02 10° SSE
USA 116 3.8 18:19:25 10° N 18:22:37 60° WNW 18:26:06 10° SSW
USA 238 DEB 3.7 18:16:13 10° SW 18:22:56 85° NW 18:29:24 13° NE
USA 238 3.7 18:16:19 10° SW 18:23:03 86° NW 18:29:28 13° NE
Unknown 4.1 18:21:47 10° WNW 18:25:49 48° N 18:26:27 44° NE
CZ-4 R/B 3.2 18:22:00 10° SSW 18:25:51 34° W 18:29:45 10° NNW
Abrixas rocket 2.3 18:24:20 10° W 18:27:03 66° W 18:27:03 66° W
Unknown 4.0 18:23:28 10° WNW 18:27:30 48° NNE 18:28:04 45° NE
Unknown 4.0 18:25:06 10° WNW 18:29:09 49° NNE 18:29:39 46° NE
Unknown 4.0 18:26:46 10° WNW 18:30:48 49° NNE 18:31:13 47° NNE
DMSP B5D1-3 4.4 18:25:40 10° NNE 18:30:50 89° ESE 18:36:00 10° SSW
Cosmos 2278 Rocket 3.2 18:26:23 10° SW 18:31:49 45° NW 18:37:17 10° NNE
Unknown 4.0 18:28:24 10° WNW 18:32:27 50° NNE 18:32:48 48° NNE
ATLAS CENTAUR R/B 3.3 18:30:01 10° NNW 18:33:06 20° NNE 18:33:06 20° NNE
Unknown 4.0 18:31:45 10° WNW 18:35:49 51° NNE 18:36:01 50° NNE
Cosmos 2297 3.6 18:30:59 10° SSW 18:36:41 76° ESE 18:41:31 15° NNE
Cosmos 2016 Rocket 3.9 18:30:34 10° N 18:36:51 66° ENE 18:41:16 21° SSE
Starlink (trailer) 4.0 18:33:24 10° WNW 18:37:28 51° NNE 18:37:35 51° NNE
Unknown 4.0 18:35:06 10° WNW 18:39:10 52° NNE 18:39:13 52° NNE
Unknown 4.0 18:36:45 10° WNW 18:40:49 52° NNE 18:40:49 52° NNE
SJ 16-02 1.2 18:36:43 10° NNW 18:41:02 70° ENE 18:41:02 70° ENE
Ariane Rocket 3.2 18:40:05 10° S 18:45:09 69° WSW 18:50:17 10° NNW
NOSS 3-2 (A) 3.6 18:39:34 10° SW 18:45:25 74° NW 18:50:14 20° NE
SL-08 R/B 4.3 18:39:35 10° N 18:45:40 65° ENE 18:47:43 42° SE
Unknown 4.0 18:41:47 10° WNW 18:45:38 54° N 18:45:38 54° N
ARGOS 3.6 18:46:31 42° NE 18:46:31 42° NE 18:51:03 10° N
Unknown 4.0 18:43:24 10° WNW 18:47:11 53° N 18:47:11 53° N
Unknown 4.1 18:45:07 10° WNW 18:48:50 53° N 18:48:50 53° N
Cosmos 468 Rocket 3.8 18:44:37 10° SSW 18:49:53 80° ESE 18:52:10 35° NNE
Unknown 3.8 18:46:36 10° WNW 18:49:50 61° W 18:49:50 61° W
Unknown 4.1 18:46:42 10° WNW 18:50:24 53° N 18:50:24 53° N
Unknown 4.1 18:48:24 10° WNW 18:51:59 52° NNW 18:51:59 52° NNW
Cosmos 1892 3.9 18:49:58 10° N 18:52:13 34° NNW 18:52:13 34° NNW
Unknown 4.2 18:50:10 10° WNW 18:53:41 52° NNW 18:53:41 52° NNW
Unknown 4.3 18:53:30 10° WNW 18:56:52 50° NNW 18:56:52 50° NNW
Unknown 4.3 18:55:03 10° WNW 18:58:22 49° NNW 18:58:22 49° NNW
Cosmos 990 Rocket 4.3 18:55:02 10° NNW 19:00:11 62° WSW 19:02:10 36° S
Cosmos 1937 Rocket 3.5 18:56:18 10° NNW 19:01:28 77° WSW 19:02:14 63° S
ADEOS Rocket 3.4 18:54:06 10° NNE 19:01:37 55° E 19:03:34 44° SE
Unknown 4.4 18:58:18 10° WNW 19:01:29 46° NW 19:01:29 46° NW
Cosmos 1766 Rocket 4.1 19:02:47 10° NNW 19:06:20 55° NW 19:06:20 55° NW
Cosmos 1570 Rocket 4.5 19:03:08 10° SSW 19:07:02 50° S 19:07:02 50° S
CZ-2C R/B 4.0 19:13:11 41° NNE 19:13:11 41° NNE 19:17:09 10° N
NOSS 3-2 (C) 3.5 19:06:01 10° SW 19:11:53 74° NW 19:14:29 38° NNE
Lacrosse 5 4.1 19:10:03 10° WNW 19:13:38 20° WSW 19:16:09 14° SSW
Cosmos 1238 Rocket 4.4 19:08:52 10° N 19:14:03 48° NNE 19:14:03 48° NNE
Cosmos 2061 Rocket 4.3 19:09:13 10° NNW 19:15:23 65° W 19:19:54 19° S
Resurs 01 Rocket 4.1 19:29:47 14° N 19:29:47 14° N 19:30:26 10° N
Cosmos 1763 Rocket 4.0 19:20:57 10° SSW 19:25:17 56° WSW 19:25:17 56° WSW
SPOT 3 Rocket 4.2 19:36:38 53° NW 19:36:38 53° NW 19:40:53 10° NNW
ATLAS 3B R/B 2.7 19:30:10 10° SW 19:36:53 75° NW 19:37:32 69° N
CENTAUR R/B 2.8 19:37:28 10° SW 19:43:34 67° NW 19:44:14 63° N
H-2A R/B 3.1 19:52:28 44° NW 19:52:28 44° NW 19:56:31 10° NNW
Cosmos 2233 Rocket 4.5 19:52:08 10° NNW 19:57:25 57° NW 19:57:25 57° NW
ATLAS 5 CENTAUR R/B 4.3 19:59:50 10° NNW 20:01:57 16° N 20:01:57 16° N
ATLAS CENTAUR R/B 4.4 20:08:36 10° NW 20:09:18 14° NW 20:09:18 14° NW
SJ 16-02 4.3 20:16:57 10° WNW 20:18:03 13° WNW 20:18:03 13° WNW
